Terug naar catalogus

KSM1-D

ActiefWetenschapVLEO
NORAD 46907·PAYLOAD·🇱🇺 Luxembourg

Gelanceerd Nov 7, 2020 vanaf Satish Dhawan Space Centre

Loading…

Volgende Passages (komende 24 uur)

TLE

VersSource: Space-Track

Epoch: Sep 14, 2026, 23:20 UTC

1 46907U 20081C   26257.97274464  .00006894  00000-0  26668-3 0  9990
2 46907  36.8948 234.8931 0004245 266.6071  93.4192 15.25839761322810

Volg KSM1-D in realtime met AllMySat

Download on the App Store